Location: Huesca
(42.1318°N, 0.4078°W)
Time: 17:53:48
(UTC+01:00)

Explorer 7 - Pass Details

Date: 23 December 2025
Orbit: 433 x 550 km, 50.2° (Epoch: 17 January)

Event Time Altitude Azimuth Distance (km) Brightness Sun altitude
Rises 18:57:25 0° 303° (WNW) 2,468 10.7 -14.8°
Reaches altitude 10° 18:59:40 10° 311° (NW) 1,576 9.6 -15.2°
Maximum altitude 19:03:01 39° 22° (NNE) 676 6.9 -15.8°
Enters shadow 19:03:40 35° 51° (NE) 728 6.9 -15.9°
